Location: M cDonald Observatory Visitors Center
(30.6776°N, 104.0264°W)
Time: 17:38:53
(UTC-06:00)

Envisat - Visible Passes

Search period start: 27 February 2020 00:00
Search period end: 08 March 2020 00:00
Orbit: 764 x 766 km, 98.1° (Epoch: 27 February)

Date Brightness Start Highest point End Pass type
(mag) Time Alt. Az. Time Alt. Az. Time Alt. Az.
27 Feb 5.8 06:34:08 10° NE 06:38:04 23° E 06:41:59 10° SSE visible
27 Feb 4.6 19:21:10 10° S 19:25:55 41° W 19:30:42 10° NNW visible
29 Feb 5.8 19:47:38 10° SW 19:51:30 22° W 19:55:23 10° NW visible
01 Mar 6.2 06:23:24 10° NE 06:26:42 17° E 06:29:58 10° SE visible
01 Mar 4.0 19:09:39 10° S 19:14:36 54° W 19:19:34 10° NNW visible
02 Mar 6.5 20:15:47 10° WSW 20:17:10 11° W 20:18:34 10° WNW visible
03 Mar 5.1 06:47:47 10° NE 06:52:19 32° E 06:56:49 10° SSE visible
03 Mar 5.3 19:35:49 10° SSW 19:40:09 28° W 19:44:30 10° NW visible
04 Mar 6.4 06:13:04 10° ENE 06:15:18 13° E 06:17:34 10° ESE visible
05 Mar 6.2 20:02:56 10° SW 20:05:46 15° W 20:08:37 10° WNW visible
06 Mar 5.7 06:36:50 10° NE 06:40:58 25° E 06:45:05 10° SSE visible
06 Mar 4.8 19:24:09 10° SSW 19:28:48 37° W 19:33:29 10° NNW visible
